SL-14 DEB, 45283

Orbit data source: Space-Track

SL-14 DEB, 45283 is space debris in LEO originally from a launch on Thu, 15 Aug 1991 UTC launched from the Plesetsk Missile And Space Complex (PKMTR). Debris objects in space refer to the collection of defunct objects orbiting the Earth. Examples of debris include non-operational satellites, rocket bodies, and fragments generated from explosions, collisions, or faulty payload assembly.

Loading next visibility...
Identifier
45283, 1991-056V
Orbit
LEO
Country
Flag of CISCIS
Related business
Manufacturer
Unknown
Mission
Spacecraft
Bus & Motor
Unknown
Mass
Unknown
Launch date (UTC)
1991-08-15 (34 years ago)
Launch vehicle
Unknown
Launch site
Plesetsk Missile And Space Complex (PKMTR)
Object type
Payload
Rocket body
Debris
Shape & HBR
Unknown shape, 0.1 m
Radar Cross Section
Small (<0.1 m²)

Expand to show TLE details & history
Last TLE update: 19 hours ago

TLE from 19 hours ago
0 SL-14 DEB
1 45283U 91056V   26035.27873255  .00001670  00000-0  64951-2 0  9999
2 45283  82.5261 346.0443 0248341 248.3303 109.1187 12.79142203277405
Epoch: 2026-02-04T06:41Z
TLE epoch observation values (Epoch: 2026-02-04T06:41:22.492Z)
Latitude
0.00003°
Longitude
111.25299°
Altitude
1,414.703 km
Speed
7.122 km/s
True Right ascension
23h 04m 10s
True Declination
0° 00' 00"
Sunlit
Object was in daylight at epoch
Visualization orbit readout
Latitude
Unknown
Longitude
Unknown
Altitude
Unknown
Speed
Unknown
Apparent Right ascension
Unknown
Apparent Declination
Unknown
Sunlit
N/A
Visualization observer readout
Local Sidereal Time
03:53:17
Azimuth
Unknown
Elevation
Unknown
Doppler factor
Unknown
Orbital elements
Apogee altitude
1,533.945 km
Perigee altitude
1,150.489 km
Semi-major axis
7,720.354 km
Eccentricity
0.02483
Inclination
82.5261°
RAAN
346.0443°
Arg. of periapsis
248.3303°
True anomaly
111.77948°
Mean anomaly
109.1187°
Eccentric anomaly
110.4519°
Mean motion
3.19954 °/min
Orbital period
112.52 mins
BSTAR
0.0064951
Loading maneuver chart data...
Computing Atmospheric mass density...
Loading historical data...
Loading historical data...
Loading historical data...
Loading historical data...
Loading historical data...
Loading historical data...
Loading historical data...

Documentation

Showing up to 5 results
|